King Salmon, AK

3:47 PM AKDT on June 25, 2017 (GMT -0800)
King Salmon

Weather History for PAKN - October, 2012

Change the Weather History Date:

Wednesday, October 10, 2012

  Actual Average Record
Temperature  
Mean Temperature 45 °F 36 °F  
Max Temperature 52 °F 44 °F 58 °F (1932)
Min Temperature 38 °F 28 °F 11 °F (1980)
Degree Days  
Heating Degree Days 20 29  
Month to date heating degree days 178 265  
Since 1 July heating degree days 1501 1403  
Cooling Degree Days 0 0  
Month to date cooling degree days 0 0  
Year to date cooling degree days 0 1  
Moisture  
Dew Point 42 °F    
Average Humidity 0    
Maximum Humidity 0    
Minimum Humidity 0    
Precipitation  
Precipitation 0.00 in 0.08 in 0.60 in (1919)
Month to date precipitation 1.50 0.82  
Year to date precipitation 21.55 15.61  
Snow  
Snow 0.00 in 0.10 in - ()
Month to date snowfall 0.0 0.3  
Since 1 July snowfall T 0.4  
Since 1 September snowfall 0.0 0.4  
Snow Depth 0.00 in    
Sea Level Pressure  
Sea Level Pressure 29.89 in    
Wind  
Wind Speed 14 mph (North)    
Max Wind Speed 23 mph    
Max Gust Speed 31 mph    
Visibility 8 miles    
Events      
T = Trace of Precipitation, MM = Missing Value Source: NWS Daily Summary

Daily Weather History Graph

Daily Weather History Graph

Search for Another Location

Airport or City:

Trip Planner

Search our weather history database for the weather conditions in past years. The results will help you decide how hot, cold, wet, or windy it might be!

Date:

Astronomy

Oct. 10, 2012 Rise Set
Actual Time 8:53 AM AKDT 7:32 PM AKDT
Civil Twilight 8:13 AM AKDT 8:12 PM AKDT
Nautical Twilight 7:26 AM AKDT 8:58 PM AKDT
Astronomical Twilight 6:39 AM AKDT 9:45 PM AKDT
Moon 2:36 AM AKDT (10/10) 5:36 PM AKDT (10/10)
Length of Visible Light 11h 59m
Length of Day
10h 39m
Waning Crescent, 26% of the Moon is Illuminated
Oct 10
Waning Crescent
Oct 15
New
Oct 21
First Quarter
Oct 29
Full
Nov 6
Last Quarter

Hourly Weather History & Observations

Time (AKDT) Temp. Windchill Dew Point Humidity Pressure Visibility Wind Dir Wind Speed Gust Speed Precip Events Conditions
12:54 AM 41.0 °F 34.7 °F 39.9 °F 96% 30.01 in 10.0 mi North 10.4 mph - N/A   Partly Cloudy
1:34 AM 41.0 °F 35.8 °F 41.0 °F 100% 30.00 in 1.8 mi North 8.1 mph - N/A   Scattered Clouds
1:43 AM 41.0 °F 35.2 °F 41.0 °F 100% 30.00 in 2.5 mi North 9.2 mph - N/A   Scattered Clouds
1:51 AM 41.0 °F 35.2 °F 41.0 °F 100% 30.00 in 7.0 mi NNE 9.2 mph - N/A   Scattered Clouds
1:54 AM 41.0 °F 35.2 °F 41.0 °F 100% 30.00 in 9.0 mi NNE 9.2 mph - N/A   Scattered Clouds
2:54 AM 41.0 °F 34.7 °F 39.9 °F 96% 29.99 in 10.0 mi North 10.4 mph - N/A   Scattered Clouds
3:54 AM 39.9 °F 32.5 °F 39.0 °F 97% 29.99 in 10.0 mi North 12.7 mph - N/A   Clear
4:16 AM 39.2 °F 31.6 °F 39.2 °F 100% 29.97 in 10.0 mi North 12.7 mph - N/A   Partly Cloudy
4:54 AM 39.9 °F 32.1 °F 39.0 °F 97% 29.97 in 10.0 mi North 13.8 mph - N/A   Clear
5:05 AM 39.2 °F 31.2 °F 39.2 °F 100% 29.97 in 7.0 mi North 13.8 mph - N/A   Scattered Clouds
5:54 AM 41.0 °F 33.9 °F 39.9 °F 96% 29.96 in 10.0 mi North 12.7 mph - N/A   Scattered Clouds
6:54 AM 41.0 °F 33.1 °F 39.9 °F 96% 29.94 in 10.0 mi North 15.0 mph - N/A   Scattered Clouds
7:54 AM 41.0 °F 33.9 °F 39.9 °F 96% 29.93 in 10.0 mi North 12.7 mph - N/A   Partly Cloudy
8:54 AM 41.0 °F 33.1 °F 39.9 °F 96% 29.92 in 10.0 mi North 15.0 mph - N/A   Mostly Cloudy
9:54 AM 42.1 °F 34.5 °F 41.0 °F 96% 29.91 in 10.0 mi North 15.0 mph - N/A   Mostly Cloudy
10:41 AM 42.8 °F 36.2 °F 41.0 °F 93% 29.91 in 4.0 mi North 12.7 mph - N/A   Overcast
10:51 AM 41.0 °F 33.5 °F 41.0 °F 100% 29.91 in 1.5 mi North 13.8 mph - N/A   Overcast
10:54 AM 41.0 °F 34.3 °F 41.0 °F 100% 29.91 in 1.5 mi North 11.5 mph - N/A   Overcast
11:07 AM 42.8 °F 37.0 °F 42.8 °F 100% 29.91 in 1.0 mi North 10.4 mph - N/A   Overcast
11:54 AM 43.0 °F 35.4 °F 43.0 °F 100% 29.90 in 1.5 mi North 16.1 mph - N/A   Overcast
12:01 PM 42.8 °F 35.4 °F 42.8 °F 100% 29.90 in 2.0 mi North 15.0 mph - N/A   Overcast
12:08 PM 42.8 °F 36.2 °F 42.8 °F 100% 29.90 in 1.5 mi North 12.7 mph - N/A   Overcast
12:24 PM 44.6 °F 37.2 °F 44.6 °F 100% 29.89 in 3.0 mi North 17.3 mph 23.0 mph N/A   Overcast
12:54 PM 46.9 °F - 45.0 °F 93% 29.88 in 10.0 mi North 13.8 mph 25.3 mph N/A   Mostly Cloudy
1:01 PM 46.4 °F 39.0 °F 44.6 °F 93% 29.88 in 10.0 mi North 19.6 mph 25.3 mph N/A   Overcast
1:40 PM 46.4 °F 39.8 °F 44.6 °F 93% 29.87 in 10.0 mi North 16.1 mph 24.2 mph N/A   Mostly Cloudy
1:54 PM 46.9 °F - 44.1 °F 90% 29.87 in 10.0 mi North 20.7 mph 29.9 mph N/A   Mostly Cloudy
2:54 PM 50.0 °F - 45.0 °F 83% 29.86 in 10.0 mi NNE 15.0 mph 23.0 mph N/A   Mostly Cloudy
3:54 PM 51.1 °F - 45.0 °F 80% 29.83 in 10.0 mi NNE 21.9 mph 28.8 mph N/A   Mostly Cloudy
4:54 PM 51.1 °F - 45.0 °F 80% 29.81 in 10.0 mi North 19.6 mph 25.3 mph N/A   Mostly Cloudy
5:54 PM 50.0 °F - 45.0 °F 83% 29.79 in 10.0 mi NNE 16.1 mph 23.0 mph N/A   Scattered Clouds
6:54 PM 50.0 °F - 44.1 °F 80% 29.78 in 10.0 mi North 13.8 mph 23.0 mph N/A   Scattered Clouds
7:54 PM 48.0 °F - 43.0 °F 83% 29.77 in 10.0 mi North 17.3 mph 23.0 mph N/A   Scattered Clouds
8:54 PM 46.9 °F - 42.1 °F 83% 29.76 in 10.0 mi North 15.0 mph - N/A   Scattered Clouds
9:54 PM 46.0 °F 40.6 °F 42.1 °F 86% 29.75 in 10.0 mi North 11.5 mph - N/A   Partly Cloudy
10:54 PM 44.1 °F 39.0 °F 39.9 °F 85% 29.75 in 10.0 mi North 9.2 mph - N/A   Scattered Clouds
11:54 PM 39.9 °F 33.9 °F 37.9 °F 93% 29.75 in 10.0 mi North 9.2 mph - N/A   Clear